Regional Weather Roundup
Issued by NWS Little Rock, AR

Home | Current Version | Previous Version | Graphics & Text | Print | Product List | Glossary On
Versions: 1 2 3 4 5 6 7 8 9 10 11 12 13 14 15 16 17 18 19 20 21 22 23 24 25 26 27 28 29 30 31 32 33 34 35 36 37 38 39 40 41 42 43 44 45 46 47 48 49 50
000
ASUS44 KLZK 030405
RWRLZK

WEATHER ROUNDUP FOR ARKANSAS
NATIONAL WEATHER SERVICE LITTLE ROCK AR
1100 PM CDT SAT MAY 02 2015

NOTE: "FAIR" INDICATES FEW OR NO CLOUDS BELOW 12,000 FEET WITH NO
SIGNIFICANT WEATHER AND/OR OBSTRUCTIONS TO VISIBILITY.

ARZ001-003-010-029-030500-
NORTHWEST ARKANSAS

CITY           SKY/WX    TMP DP  RH WIND       PRES   REMARKS
FAYETTEVILLE   CLEAR     53  52  96 S5        30.02R
FORT SMITH     CLEAR     67  50  54 S3        30.00R
HARRISON       CLEAR     61  48  62 S5        30.03R
BENTONVILLE    CLEAR    N/A N/A N/A S7        30.01F
ROGERS         CLEAR     63  50  62 SE8       30.02S
SILOAM SPGS    CLEAR     61  46  59 S6        30.02S
$$

ARZ004-005-016-030500-
NORTH CENTRAL ARKANSAS

CITY           SKY/WX    TMP DP  RH WIND       PRES   REMARKS
BATESVILLE     CLEAR     63  43  48 SE3       30.04S
FLIPPIN        CLEAR     64  46  52 CALM      30.01R
MTN HOME       CLEAR     62  46  55 S5        30.01S
$$

ARZ040-041-030500-
WEST CENTRAL ARKANSAS

CITY           SKY/WX    TMP DP  RH WIND       PRES   REMARKS
MENA           CLEAR     59  54  82 CALM      30.04S
MOUNT IDA      CLEAR     57  53  86 CALM      30.02R
$$

ARZ009-017-025-026-028-030500-
NORTHEAST ARKANSAS

CITY           SKY/WX    TMP DP  RH WIND       PRES   REMARKS
CORNING          N/A     63  45  51 S6        30.04S
JONESBORO      CLEAR     53  48  83 CALM      30.04S
NEWPORT        FAIR      60  49  67 S5        30.05S
WALNUT RIDGE   PTCLDY    61  45  55 S6        30.03S
BLYTHEVILLE    CLEAR     62  48  60 W5        30.05S
$$

ARZ022-023-033-042-044-030500-
CENTRAL ARKANSAS

CITY           SKY/WX    TMP DP  RH WIND       PRES   REMARKS
LITTLE ROCK    MOCLDY    62  47  57 S6        30.04S
N LITTLE ROCK  MOCLDY    67  47  49 S6        30.04
JACKSONVILLE   CLEAR     54  50  85 NE1       30.03S
SEARCY         CLEAR     56  50  80 CALM      30.05S
HOT SPRINGS    CLEAR     61  51  70 CALM      30.04R
RUSSELLVILLE   CLEAR     61  52  72 CALM      30.02R
CLINTON        FAIR      54  50  87 CALM      30.06S
$$

ARZ036-030500-
EAST ARKANSAS

CITY           SKY/WX    TMP DP  RH WIND       PRES   REMARKS
WEST MEMPHIS   CLEAR     60  47  61 CALM      30.05S
$$

ARZ050-053-066-070-073-030500-
SOUTHWEST ARKANSAS

CITY           SKY/WX    TMP DP  RH WIND       PRES   REMARKS
ARKADELPHIA    FAIR      60  60 100 CALM      30.04R
CAMDEN         CLEAR     55  52  88 CALM      30.03S
TEXARKANA      CLEAR     67  54  63 SE6       30.02R
EL DORADO      CLEAR     61  53  75 CALM      30.04R
DE QUEEN       CLEAR     59  57  93 E3        30.00R
$$

ARZ056-057-069-030500-
SOUTHEAST ARKANSAS

CITY           SKY/WX    TMP DP  RH WIND       PRES   REMARKS
PINE BLUFF     CLEAR     60  52  74 CALM      30.05R
STUTTGART      CLEAR     64  48  55 SE5       30.05S
MONTICELLO     CLEAR     60  51  72 SE3       30.05S

$$





USA.gov is the U.S. government's official web portal to all federal, state and local government web resources and services.